EW9274 Weather Reports


Display with metric or nautical units.
time (UTC)temp
F
wind
direction
speed
MPH
gust
MPH
rain 1hr
in
rain 24hr
in
rain mn
in
humidity
%
barometer
mb
20260902220503 88 257 7.0 12.0 0.00 0.00 0.00 64 1012.9
20260902220023 88 261 5.0 9.0 0.00 0.00 0.00 63 1012.8
20260902215518 88 254 4.0 9.0 0.00 0.00 0.00 64 1012.8
20260902215016 88 238 5.0 10.0 0.00 0.00 0.00 62 1012.7
20260902214534 89 259 4.0 10.0 0.00 0.04 0.00 62 1012.8
20260902214017 89 259 4.0 10.0 0.00 0.05 0.00 62 1012.9
20260902213511 89 223 5.0 10.0 0.00 0.05 0.00 62 1012.8
20260902213030 88 208 4.0 10.0 0.00 0.05 0.00 63 1012.9
20260902212504 88 281 5.0 10.0 0.00 0.05 0.00 64 1013.0
20260902212008 88 264 4.0 9.0 0.00 0.05 0.00 63 1013.0
20260902211530 88 263 6.0 13.0 0.00 0.05 0.00 64 1012.8
20260902211005 89 169 4.0 13.0 0.00 0.05 0.00 62 1012.7
20260902210516 89 253 7.0 13.0 0.00 0.06 0.00 61 1012.8
20260902210031 89 160 6.0 12.0 0.00 0.06 0.00 60 1012.9
20260902205504 89 254 3.0 11.0 0.00 0.06 0.00 61 1013.0
20260902205009 89 170 5.0 12.0 0.00 0.06 0.00 61 1013.0
20260902204538 89 258 3.0 12.0 0.00 0.06 0.00 62 1012.9
20260902204006 89 229 5.0 12.0 0.00 0.06 0.00 62 1012.9
20260902203520 89 197 5.0 12.0 0.00 0.06 0.00 61 1012.9
20260902203033 91 271 5.0 9.0 0.00 0.06 0.00 61 1012.9
20260902202506 90 207 2.0 10.0 0.00 0.06 0.00 63 1012.7
20260902202012 90 217 5.0 10.0 0.00 0.06 0.00 61 1012.8
20260902201535 90 176 2.0 8.0 0.00 0.06 0.00 62 1012.9
20260902201007 89 263 2.0 8.0 0.00 0.06 0.00 63 1012.9
20260902200502 89 280 3.0 7.0 0.00 0.06 0.00 62 1012.9
20260902200008 89 211 1.0 7.0 0.00 0.06 0.00 62 1013.0
20260902195509 89 157 1.0 7.0 0.00 0.07 0.00 63 1013.0
20260902195002 89 227 3.0 10.0 0.00 0.07 0.00 63 1013.0
20260902194533 89 128 3.0 10.0 0.00 0.07 0.00 64 1013.1
20260902194009 89 244 5.0 11.0 0.00 0.07 0.00 63 1013.2
20260902193503 89 194 3.0 12.0 0.00 0.08 0.00 64 1013.3
20260902193037 89 250 4.0 11.0 0.00 0.08 0.00 63 1013.3
20260902192508 89 267 6.0 11.0 0.00 0.08 0.00 62 1013.2
20260902192003 89 193 2.0 8.0 0.00 0.08 0.00 62 1013.2
20260902191511 89 272 4.0 9.0 0.00 0.08 0.00 61 1013.3
20260902191011 90 227 5.0 14.0 0.00 0.08 0.00 59 1013.3
20260902190503 90 227 3.0 14.0 0.00 0.08 0.00 59 1013.2
20260902190019 90 246 1.0 8.0 0.00 0.08 0.00 62 1013.3
20260902185510 88 240 4.0 10.0 0.00 0.08 0.00 65 1013.4
20260902185004 89 238 3.0 10.0 0.00 0.08 0.00 64 1013.5
20260902184516 89 238 2.0 11.0 0.00 0.08 0.00 65 1013.4
20260902184000 88 234 6.0 10.0 0.00 0.08 0.00 64 1013.5
20260902183503 88 111 2.0 7.0 0.00 0.08 0.00 65 1013.5
20260902183014 88 259 2.0 5.0 0.00 0.08 0.00 66 1013.5
20260902182500 87 147 1.0 6.0 0.00 0.08 0.00 67 1013.5
20260902182005 87 116 2.0 6.0 0.00 0.08 0.00 65 1013.6
20260902181516 87 161 1.0 7.0 0.00 0.08 0.00 66 1013.7
20260902181012 87 259 2.0 7.0 0.00 0.08 0.00 65 1013.8
20260902180503 87 164 2.0 7.0 0.00 0.08 0.00 66 1013.8
20260902180020 87 165 2.0 7.0 0.00 0.08 0.00 65 1013.8
20260902175513 88 352 1.0 5.0 0.00 0.08 0.00 64 1013.9
20260902175004 86 227 1.0 5.0 0.00 0.08 0.00 68 1013.8
20260902174518 85 143 1.0 8.0 0.00 0.08 0.00 69 1014.0
20260902174003 85 295 4.0 8.0 0.00 0.08 0.00 67 1014.2
20260902173505 85 263 2.0 8.0 0.00 0.08 0.00 68 1014.3
20260902173020 86 250 3.0 8.0 0.00 0.08 0.00 66 1014.2
20260902172503 87 223 0.0 5.0 0.00 0.08 0.00 65 1014.0
20260902172008 86 266 1.0 7.0 0.00 0.08 0.00 66 1013.9
20260902171533 86 170 2.0 8.0 0.00 0.08 0.00 65 1014.1
20260902171007 88 200 2.0 8.0 0.00 0.08 0.00 62 1014.1
20260902170505 88 140 1.0 3.0 0.00 0.08 0.00 62 1014.1
20260902170035 85 286 0.0 7.0 0.00 0.08 0.00 63 1014.2
20260902165504 86 246 1.0 7.0 0.00 0.08 0.00 63 1014.3
20260902165010 85 258 2.0 5.0 0.00 0.08 0.00 64 1014.3
20260902164526 85 304 2.0 5.0 0.00 0.08 0.00 63 1014.2
20260902164005 85 211 1.0 7.0 0.00 0.08 0.00 64 1014.3
20260902163508 85 191 2.0 7.0 0.00 0.08 0.00 64 1014.4
20260902163028 85 256 3.0 7.0 0.00 0.08 0.00 63 1014.5
20260902162518 84 254 1.0 7.0 0.00 0.08 0.00 65 1014.5
20260902162010 84 252 1.0 3.0 0.00 0.08 0.00 63 1014.6
20260902161539 83 262 1.0 7.0 0.00 0.08 0.00 66 1014.6
20260902161005 84 244 1.0 7.0 0.00 0.08 0.00 64 1014.7
20260902160522 83 169 2.0 8.0 0.00 0.08 0.00 66 1014.3
20260902160035 83 302 0.0 8.0 0.00 0.08 0.00 66 1014.3
20260902155505 82 194 2.0 8.0 0.00 0.08 0.00 66 1014.0
20260902155012 82 138 2.0 9.0 0.00 0.08 0.00 67 1014.1
20260902154503 81 137 3.0 9.0 0.00 0.08 0.00 67 1014.2
20260902154017 82 175 3.0 9.0 0.00 0.08 0.00 65 1014.3
20260902153509 81 125 2.0 9.0 0.00 0.08 0.00 67 1014.4
20260902153006 81 146 3.0 8.0 0.00 0.08 0.00 67 1014.5
20260902152506 80 123 4.0 7.0 0.00 0.08 0.00 69 1014.6
20260902152009 80 82 2.0 7.0 0.00 0.08 0.00 70 1014.6
20260902151505 79 69 3.0 7.0 0.00 0.08 0.00 70 1014.7
20260902151006 80 76 3.0 6.0 0.00 0.08 0.00 69 1014.7
20260902150513 80 58 2.0 8.0 0.00 0.08 0.00 69 1014.8
20260902150008 80 80 4.0 8.0 0.00 0.08 0.00 68 1014.8
20260902145508 79 73 2.0 7.0 0.00 0.08 0.00 69 1014.8
20260902145011 79 123 4.0 7.0 0.00 0.08 0.00 71 1014.7
20260902144510 78 94 4.0 7.0 0.00 0.08 0.00 71 1014.7
20260902144007 78 135 3.0 7.0 0.00 0.08 0.00 71 1014.9
20260902143512 79 78 4.0 7.0 0.00 0.08 0.00 70 1015.0
20260902143011 79 123 1.0 6.0 0.00 0.08 0.00 71 1015.0
20260902142508 78 232 1.0 6.0 0.00 0.08 0.00 73 1014.9
20260902142016 78 146 2.0 5.0 0.00 0.08 0.00 74 1014.9
20260902141510 78 146 2.0 4.0 0.00 0.08 0.00 73 1015.0
20260902141009 77 126 1.0 6.0 0.00 0.08 0.00 74 1015.1
20260902140513 78 128 1.0 6.0 0.00 0.08 0.00 73 1015.1
20260902140011 78 144 2.0 5.0 0.00 0.08 0.00 73 1015.2
20260902135511 77 89 2.0 5.0 0.00 0.08 0.00 72 1015.1
20260902135015 77 156 1.0 4.0 0.00 0.08 0.00 73 1015.2
20260902134512 77 96 2.0 4.0 0.00 0.08 0.00 73 1015.3
20260902134010 77 83 0.0 9.0 0.00 0.08 0.00 73 1015.2
20260902133514 77 106 2.0 9.0 0.00 0.08 0.00 72 1015.0
20260902133014 77 100 3.0 9.0 0.00 0.08 0.00 71 1015.0
20260902132514 77 40 4.0 9.0 0.00 0.08 0.00 70 1015.1
20260902132018 78 54 3.0 9.0 0.00 0.08 0.00 70 1015.1
20260902131522 77 44 2.0 6.0 0.00 0.08 0.00 72 1015.2
20260902131015 76 87 1.0 7.0 0.00 0.08 0.00 74 1015.4
20260902130516 76 41 1.0 8.0 0.00 0.08 0.00 74 1015.5
20260902130018 75 129 4.0 8.0 0.00 0.08 0.00 75 1015.3
20260902125513 76 49 3.0 6.0 0.00 0.08 0.00 75 1015.5
20260902125004 75 46 3.0 6.0 0.00 0.08 0.00 75 1015.5
20260902124519 75 76 3.0 7.0 0.00 0.08 0.00 75 1015.5
20260902124012 75 40 5.0 7.0 0.00 0.08 0.00 76 1015.5
20260902123506 75 64 4.0 6.0 0.00 0.08 0.00 76 1015.5
20260902123024 75 44 4.0 6.0 0.00 0.08 0.00 77 1015.3
20260902122516 75 69 1.0 5.0 0.00 0.08 0.00 79 1015.6
20260902122005 75 68 3.0 5.0 0.00 0.08 0.00 79 1015.5
20260902121523 75 233 1.0 3.0 0.00 0.08 0.00 80 1015.6
20260902121015 75 42 1.0 5.0 0.00 0.08 0.00 81 1015.6
20260902120506 75 92 2.0 5.0 0.00 0.08 0.00 81 1015.4
20260902120024 75 15 1.0 9.0 0.00 0.08 0.00 82 1015.3
20260902115515 75 27 3.0 9.0 0.00 0.08 0.00 84 1015.2
20260902115007 75 52 3.0 8.0 0.00 0.08 0.00 86 1015.3
20260902114534 75 350 1.0 5.0 0.00 0.08 0.00 87 1015.0
20260902114017 74 320 2.0 6.0 0.00 0.08 0.00 89 1015.5
20260902113507 74 305 2.0 8.0 0.00 0.08 0.00 90 1015.1
20260902113027 74 336 2.0 8.0 0.00 0.08 0.00 91 1015.3
20260902112517 73 327 0.0 5.0 0.00 0.08 0.00 92 1014.9
20260902112008 73 328 3.0 5.0 0.00 0.08 0.00 92 1014.8
20260902111537 73 298 1.0 5.0 0.00 0.08 0.00 92 1014.7
20260902111018 73 244 1.0 2.0 0.00 0.08 0.00 92 1014.2
20260902110504 73 232 1.0 2.0 0.00 0.08 0.00 92 1014.1
20260902110011 73 238 1.0 2.0 0.00 0.08 0.00 92 1014.1
20260902105505 73 234 0.0 2.0 0.00 0.08 0.00 92 1014.2
20260902105003 73 204 0.0 2.0 0.00 0.08 0.00 92 1014.1
20260902104506 73 213 0.0 2.0 0.00 0.08 0.00 92 1014.1
20260902104004 73 212 0.0 2.0 0.00 0.08 0.00 92 1014.1
20260902103504 74 221 0.0 2.0 0.00 0.08 0.00 92 1014.2
20260902103004 74 244 0.0 2.0 0.00 0.08 0.00 92 1014.2
20260902102503 74 244 0.0 2.0 0.00 0.08 0.00 92 1014.2
20260902102003 74 215 0.0 2.0 0.00 0.08 0.00 92 1014.1
20260902101502 74 235 0.0 2.0 0.00 0.08 0.00 92 1014.2
20260902101003 74 254 0.0 2.0 0.00 0.08 0.00 91 1014.2
20260902100502 74 221 0.0 2.0 0.00 0.08 0.00 91 1014.2
20260902100003 74 186 0.0 2.0 0.00 0.08 0.00 91 1014.2
20260902095504 75 178 0.0 2.0 0.00 0.08 0.00 91 1014.4
20260902095002 75 157 0.0 2.0 0.00 0.08 0.00 91 1014.4
20260902094504 75 146 0.0 2.0 0.00 0.08 0.00 91 1014.4
20260902094003 75 128 0.0 2.0 0.00 0.08 0.00 91 1014.5
20260902093503 75 113 0.0 2.0 0.00 0.08 0.00 92 1014.7
20260902093004 75 9 1.0 2.0 0.00 0.08 0.00 92 1014.7
20260902092503 74 137 1.0 6.0 0.00 0.08 0.00 92 1014.5
20260902092004 74 58 1.0 6.0 0.00 0.08 0.00 92 1014.9
20260902091506 74 347 2.0 4.0 0.00 0.08 0.00 93 1014.5
20260902091003 74 74 0.0 2.0 0.00 0.08 0.00 92 1014.2
20260902090503 74 76 0.0 2.0 0.00 0.08 0.00 92 1014.2
20260902090006 74 75 0.0 4.0 0.00 0.08 0.00 93 1014.3
20260902085502 74 65 0.0 4.0 0.00 0.08 0.00 92 1014.2
20260902085006 74 49 2.0 4.0 0.00 0.08 0.00 93 1014.4
20260902084505 75 311 0.0 2.0 0.00 0.08 0.00 93 1014.2
20260902084005 74 217 0.0 2.0 0.00 0.08 0.00 92 1014.2
20260902083504 75 200 0.0 2.0 0.00 0.08 0.00 92 1014.2
20260902083009 75 201 0.0 2.0 0.00 0.08 0.00 92 1014.0
20260902082503 75 220 0.0 2.0 0.00 0.08 0.00 92 1014.1
20260902082003 75 221 0.0 2.0 0.00 0.08 0.00 92 1014.1
20260902081514 75 224 0.0 2.0 0.00 0.08 0.00 92 1014.1
20260902081003 75 220 0.0 2.0 0.00 0.08 0.00 92 1014.0
20260902080503 75 217 1.0 2.0 0.00 0.08 0.00 92 1014.0
20260902080006 75 300 0.0 2.0 0.00 0.08 0.00 91 1014.1
20260902075504 75 26 0.0 2.0 0.00 0.08 0.00 91 1014.1
20260902075003 75 26 0.0 0.0 0.00 0.08 0.00 91 1014.2
20260902074508 76 26 0.0 0.0 0.00 0.08 0.00 91 1014.1
20260902074004 76 26 0.0 1.0 0.00 0.08 0.00 91 1014.2
20260902073504 76 26 0.0 2.0 0.00 0.08 0.00 91 1014.2
20260902073007 76 26 0.0 2.0 0.00 0.08 0.00 91 1014.2
20260902072503 76 26 0.0 2.0 0.00 0.08 0.00 91 1014.2
20260902072004 76 25 0.0 2.0 0.00 0.08 0.00 91 1014.2
20260902071511 76 55 1.0 2.0 0.00 0.08 0.00 91 1014.1
20260902071003 76 57 0.0 2.0 0.00 0.08 0.00 92 1014.2
20260902070504 76 73 0.0 2.0 0.00 0.08 0.00 92 1014.2
20260902070011 76 331 0.0 2.0 0.00 0.08 0.00 92 1014.2
20260902065503 76 219 0.0 2.0 0.00 0.08 0.00 92 1014.1
20260902065005 76 220 0.0 2.0 0.00 0.08 0.00 92 1014.1
20260902064507 76 224 0.0 2.0 0.00 0.08 0.00 92 1013.9
20260902064004 76 211 0.0 2.0 0.00 0.08 0.00 92 1013.9
20260902063505 76 218 0.0 2.0 0.00 0.08 0.00 91 1014.0
20260902063014 76 247 1.0 2.0 0.00 0.08 0.00 91 1014.0
20260902062506 76 237 0.0 2.0 0.00 0.08 0.00 91 1013.9
20260902062003 77 132 0.0 2.0 0.00 0.08 0.00 90 1014.1
20260902061510 77 138 0.0 2.0 0.00 0.08 0.00 90 1014.3
20260902061004 77 148 0.0 2.0 0.00 0.08 0.00 90 1014.3
20260902060503 77 128 0.0 2.0 0.00 0.08 0.00 89 1014.4
20260902060017 77 60 0.0 2.0 0.00 0.08 0.00 89 1014.5
20260902055507 77 60 0.0 2.0 0.00 0.08 0.00 89 1014.6
20260902055004 77 68 0.0 2.0 0.00 0.08 0.00 90 1014.4
20260902054513 77 114 0.0 2.0 0.00 0.08 0.00 90 1014.4
20260902054003 77 112 0.0 2.0 0.00 0.08 0.00 90 1014.4
20260902053505 77 84 0.0 2.0 0.00 0.08 0.00 90 1014.5
20260902053019 77 46 0.0 2.0 0.00 0.08 0.00 91 1014.4
20260902052508 77 345 0.0 2.0 0.00 0.08 0.00 91 1014.4
20260902052009 77 317 0.0 1.0 0.00 0.08 0.00 91 1014.3
20260902051512 77 313 0.0 1.0 0.00 0.08 0.00 91 1014.0
20260902051008 76 280 0.0 1.0 0.00 0.08 0.00 91 1014.0
20260902050508 76 265 0.0 2.0 0.00 0.08 0.00 91 1013.9
20260902050014 76 254 0.0 3.0 0.00 0.08 0.00 91 1013.8
20260902045505 77 205 0.0 3.0 0.00 0.08 0.08 90 1013.8
20260902045006 77 145 0.0 2.0 0.00 0.08 0.08 90 1013.8
20260902044513 77 144 0.0 2.0 0.00 0.08 0.08 90 1014.0
20260902044005 77 303 0.0 2.0 0.00 0.08 0.08 90 1014.0
20260902043505 77 312 0.0 2.0 0.00 0.08 0.08 90 1014.1
20260902043013 77 323 0.0 2.0 0.00 0.08 0.08 91 1014.2
20260902042506 77 352 1.0 2.0 0.00 0.08 0.08 91 1014.1
20260902042006 77 265 0.0 2.0 0.00 0.08 0.08 91 1014.0
20260902041514 77 235 1.0 2.0 0.00 0.08 0.08 91 1014.1
20260902041006 77 206 0.0 3.0 0.00 0.08 0.08 91 1014.2
20260902040509 77 211 1.0 3.0 0.00 0.08 0.08 91 1014.2
20260902040014 77 245 0.0 2.0 0.00 0.08 0.08 91 1014.1
20260902035506 77 234 1.0 2.0 0.00 0.08 0.08 91 1014.0
20260902035007 77 225 1.0 2.0 0.00 0.08 0.08 91 1013.9
20260902034514 77 282 0.0 2.0 0.00 0.08 0.08 91 1014.0
20260902034006 76 328 1.0 2.0 0.00 0.08 0.08 91 1013.9
20260902033509 76 291 0.0 2.0 0.00 0.08 0.08 91 1013.7
20260902033023 76 225 0.0 2.0 0.00 0.08 0.08 91 1013.6
20260902032507 77 242 0.0 2.0 0.00 0.08 0.08 91 1013.7
20260902032012 77 248 0.0 2.0 0.00 0.08 0.08 91 1013.8
20260902031518 77 224 0.0 2.0 0.00 0.08 0.08 91 1013.8
20260902031009 77 222 0.0 2.0 0.00 0.08 0.08 91 1013.9
20260902030506 77 227 1.0 2.0 0.00 0.08 0.08 91 1014.2
20260902030019 77 248 1.0 2.0 0.00 0.08 0.08 91 1014.2
20260902025510 77 233 1.0 2.0 0.00 0.08 0.08 91 1014.2
20260902025010 77 252 0.0 2.0 0.00 0.08 0.08 91 1014.2
20260902024521 77 219 0.0 2.0 0.00 0.08 0.08 90 1014.1
20260902024007 77 200 0.0 2.0 0.00 0.08 0.08 90 1014.2
20260902023507 77 254 1.0 2.0 0.00 0.08 0.08 90 1014.1
20260902023021 77 242 0.0 2.0 0.00 0.08 0.08 90 1014.1
20260902022508 77 248 0.0 2.0 0.00 0.08 0.08 90 1014.2
20260902022012 77 243 0.0 2.0 0.00 0.08 0.08 90 1014.2
20260902021527 78 187 0.0 2.0 0.00 0.08 0.08 89 1014.3
20260902021010 78 211 0.0 2.0 0.00 0.08 0.08 90 1014.4
20260902020506 77 237 0.0 2.0 0.00 0.08 0.08 90 1014.4
20260902020023 77 246 0.0 2.0 0.00 0.08 0.08 90 1014.5
20260902015502 77 234 0.0 2.0 0.00 0.08 0.08 90 1014.4
20260902015005 77 207 0.0 2.0 0.00 0.08 0.08 89 1014.4
20260902014533 77 226 0.0 1.0 0.00 0.08 0.08 89 1014.4
20260902014006 78 242 0.0 2.0 0.00 0.08 0.08 89 1014.4
20260902013509 78 225 0.0 2.0 0.00 0.08 0.08 89 1014.2
20260902013003 78 225 0.0 2.0 0.00 0.08 0.08 89 1014.2
20260902012502 77 258 0.0 2.0 0.00 0.08 0.08 89 1014.1
20260902012007 77 203 0.0 2.0 0.00 0.08 0.08 89 1014.0
20260902011504 78 236 0.0 2.0 0.00 0.08 0.08 89 1013.9
20260902011004 78 188 0.0 2.0 0.00 0.08 0.08 89 1013.8
20260902010507 78 171 0.0 2.0 0.00 0.08 0.08 89 1013.7
20260902010007 78 223 0.0 2.0 0.00 0.08 0.08 89 1013.8
20260902005503 78 263 0.0 1.0 0.00 0.08 0.08 89 1013.8
20260902005011 78 255 0.0 2.0 0.00 0.08 0.08 89 1013.8
20260902004506 78 225 0.0 2.0 0.00 0.08 0.08 88 1013.7
20260902004003 78 209 0.0 2.0 0.00 0.08 0.08 88 1013.6
20260902003511 78 244 0.0 2.0 0.00 0.08 0.08 88 1013.7
20260902003005 78 227 0.0 2.0 0.00 0.08 0.08 87 1013.7
20260902002508 78 202 0.0 2.0 0.00 0.08 0.08 87 1013.7
20260902002011 79 248 0.0 2.0 0.00 0.08 0.08 86 1013.8
20260902001504 79 215 0.0 2.0 0.00 0.08 0.08 85 1013.7
20260902001007 79 175 0.0 2.0 0.00 0.08 0.08 84 1013.7
20260902000511 80 229 0.0 2.0 0.00 0.08 0.08 82 1013.6
20260902000007 80 259 1.0 3.0 0.00 0.08 0.08 80 1013.6
20260901235507 80 258 1.0 3.0 0.00 0.08 0.08 80 1013.6
20260901235012 80 246 1.0 3.0 0.00 0.08 0.08 80 1013.7
20260901234516 80 300 1.0 3.0 0.00 0.08 0.08 81 1013.7
20260901234007 80 9 1.0 5.0 0.00 0.08 0.08 82 1013.7
20260901233513 79 344 2.0 5.0 0.00 0.08 0.08 83 1013.7
20260901233008 79 339 0.0 5.0 0.00 0.08 0.08 83 1013.6
20260901232510 79 352 2.0 6.0 0.00 0.08 0.08 83 1013.7
20260901232014 80 292 3.0 6.0 0.00 0.08 0.08 83 1013.6
20260901231513 79 254 2.0 3.0 0.00 0.08 0.08 84 1013.5
20260901231008 79 269 2.0 2.0 0.00 0.08 0.08 85 1013.2
20260901230513 79 230 1.0 2.0 0.00 0.08 0.08 85 1013.0
20260901230011 78 259 0.0 3.0 0.00 0.08 0.08 86 1012.9
20260901225510 78 166 1.0 3.0 0.00 0.08 0.08 85 1013.0
20260901225003 78 136 1.0 2.0 0.00 0.08 0.08 86 1013.2
20260901224514 78 169 0.0 2.0 0.04 0.08 0.08 86 1013.5
20260901224009 79 259 0.0 2.0 0.05 0.08 0.08 86 1013.8
20260901223504 78 180 0.0 3.0 0.05 0.08 0.08 85 1013.9
20260901223029 78 136 1.0 3.0 0.05 0.08 0.08 85 1013.9
20260901222514 78 148 0.0 2.0 0.05 0.08 0.08 86 1014.3
20260901222003 78 146 0.0 2.0 0.05 0.08 0.08 85 1014.2
20260901221523 78 152 0.0 2.0 0.05 0.08 0.08 85 1014.2
20260901221013 78 134 1.0 2.0 0.05 0.08 0.08 86 1014.2